Location: Pasadena, ca
(34.1243°N, 118.1037°W)
Time: 13:48:09
(UTC-07:00)

OTV 5 (USA 277) - Pass Details

Date: 15 October 2017
Orbit: 404 x 417 km, 43.0° (Epoch: 07 September)

Event Time Altitude Azimuth Distance (km) Brightness Sun altitude
Rises 18:48:15 0° 284° (WNW) 2,351 ? -7.1°
Reaches altitude 10° 18:50:45 10° 303° (WNW) 1,490 ? -7.6°
Maximum altitude 18:53:17 19° 352° (N) 1,047 ? -8.1°
Drops below altitude 10° 18:55:49 10° 40° (NE) 1,491 ? -8.6°
Enters shadow 18:56:30 - 47° (NE) 1,706 ? -8.8°
